Regional Weather Roundup
Issued by NWS Bismarck, ND

Home | Current Version | Previous Version | Text Only | Print | Product List | Glossary On
Versions: 1 2 3 4 5 6 7 8 9 10 11 12 13 14 15 16 17 18 19 20 21 22 23 24 25 26 27 28 29 30 31 32 33 34 35 36 37 38 39 40 41 42 43 44 45 46 47 48 49 50
000
ASUS43 KBIS 060410
RWRBIS

NWR BROADCAST TEXT
NATIONAL WEATHER SERVICE BISMARCK ND
1100 PM CDT TUE MAY 05 2015

NOTE: "FAIR" INDICATES FEW OR NO CLOUDS BELOW 12,000 FEET WITH NO
SIGNIFICANT WEATHER AND/OR OBSTRUCTIONS TO VISIBILITY.


CITY           SKY/WX    TMP DP  RH WIND       PRES   REMARKS
WILLISTON      CLEAR     65  49  56 S6        29.78R
MINOT          CLEAR     60  36  40 SE6       29.83R
MINOT AFB      CLEAR     56  35  46 SE9       29.81S
BISMARCK       MOCLDY    58  49  72 S8        29.86R
DICKINSON      MOCLDY    57  50  77 SE12      29.79S
GARRISON         N/A     59  45  59 SE8       29.83S
HETTINGER ARPT CLOUDY    59  51  75 SE10      29.83R
JAMESTOWN      MOCLDY    64  53  67 SE16      29.92S
BEACH          FAIR      55  54  94 SE13      29.78S
CARRINGTON     FAIR      63  54  72 SE16      29.92R
CROSBY         FAIR      59  48  67 E10       29.79S
HARVEY         FAIR      64  46  52 SE13      29.87S
HAZEN          FAIR      59  46  63 SE6       29.83S
LINTON         FAIR      61  55  82 SE12G18   29.89R
MANDAN         FAIR      63  50  63 S15       29.87S
OAKES            N/A     63  57  82 SE20      29.95S
STANLEY        FAIR      55  48  76 SE8       29.83R
WATFORD CITY   FAIR      63  48  59 SE12      29.77S
$$

CITY           SKY/WX    TMP DP  RH WIND       PRES   REMARKS
GRAND FORKS    PTCLDY    66  51  58 S16       29.96S
GRAND FORKS AF CLEAR     66  51  57 SE16      29.96R
DEVILS LAKE    CLEAR     64  48  55 SE15      29.91S
FARGO          PTCLDY    66  53  63 SE15      29.99R
CANDO          FAIR      61  36  39 SE14      29.91S
CAVALIER       FAIR      66  30  26 SE10      29.94S
GRAFTON        FAIR      63  37  39 SE12      29.96S
GWINNER        MOCLDY    63  55  77 SE21      29.98S
LANGDON        FAIR      61  27  27 SE14      29.94S
WALHALLA       FAIR      63  28  27 SE9       29.94S
$$

CITY           SKY/WX    TMP DP  RH WIND       PRES   REMARKS
ABERDEEN       CLOUDY    63  57  81 SE14      29.95R
MOBRIDGE       CLOUDY    60  54  80 SE10      29.87R
BUFFALO          N/A     59  50  72 SE21      29.72S
RAPID CITY     CLOUDY    59  52  77 SE12      29.83S
GLASGOW        PTCLDY    68  48  48 SE18      29.64R
SIDNEY         CLEAR     61  48  63 SE9       29.76F
WOLF POINT     PTCLDY    67  51  56 SE14G23   29.68R
GLENDIVE       CLEAR     63  50  63 SE12      29.75S
MILES CITY     CLEAR     66  49  54 SE15G24   29.67R
BAKER          PTCLDY    56  49  77 SE10      29.76S
$$

CITY           SKY/WX    TMP DP  RH WIND       PRES   REMARKS
BILLINGS       LGT RAIN  60  48  64 W8        29.75R
GREAT FALLS    CLOUDY    54  44  69 CALM      29.78R
REGINA         PTCLDY    66  48  52 SE18      29.72R
ESTEVAN        PTCLDY    63  46  55 SE10      29.79R
$$



USA.gov is the U.S. government's official web portal to all federal, state and local government web resources and services.